Location: Arcizac
(43.0933°N, 0.0112°E)
Time: 10:35:14
(UTC+00:00)

Cosmos 2237 Rocket - Pass Details

Date: 14 December 2019
Orbit: 836 x 849 km, 71.0° (Epoch: 21 January)

Event Time Altitude Azimuth Distance (km) Brightness Sun altitude
Rises 18:15:20 0° 250° (WSW) 3,405 7.0 -19.3°
Reaches altitude 10° 18:18:33 10° 268° (W) 2,473 5.8 -19.8°
Maximum altitude 18:22:27 19° 312° (NW) 1,929 4.4 -20.5°
Drops below altitude 10° 18:26:23 10° 356° (N) 2,478 4.5 -21.2°
Enters shadow 18:28:12 - 8° (N) 2,975 4.8 -21.6°
